EW4896 Weather Reports


Display with metric or nautical units.
time (UTC)temp
F
wind
direction
speed
MPH
gust
MPH
rain 1hr
in
rain 24hr
in
rain mn
in
humidity
%
barometer
mb
20230205200058 49 57 3.0 7.0 0.00 0.00 0.00 41 1014.4
20230205194555 49 180 2.0 6.0 0.00 0.00 0.00 42 1014.7
20230205193058 48 116 2.0 8.0 0.00 0.00 0.00 43 1014.8
20230205191604 48 194 2.0 9.0 0.00 0.00 0.00 43 1014.8
20230205190038 48 171 0.0 5.0 0.00 0.00 0.00 43 1014.9
20230205184539 48 234 3.0 7.0 0.00 0.00 0.00 43 1015.3
20230205183037 47 172 0.0 8.0 0.00 0.00 0.00 44 1015.4
20230205181524 45 182 1.0 5.0 0.00 0.00 0.00 46 1015.6
20230205180024 44 169 1.0 8.0 0.00 0.00 0.00 45 1016.0
20230205174518 45 164 1.0 6.0 0.00 0.00 0.00 45 1016.1
20230205173010 44 141 0.0 7.0 0.00 0.00 0.00 46 1016.3
20230205171507 43 227 2.0 12.0 0.00 0.00 0.00 46 1016.8
20230205170002 43 240 2.0 11.0 0.00 0.00 0.00 47 1017.2
20230205164600 41 104 3.0 12.0 0.00 0.00 0.00 48 1017.5
20230205163052 41 173 3.0 12.0 0.00 0.00 0.00 49 1018.0
20230205161548 39 225 0.0 10.0 0.00 0.00 0.00 51 1018.4
20230205160050 38 122 0.0 8.0 0.00 0.00 0.00 52 1018.9
20230205154540 37 101 2.0 11.0 0.00 0.00 0.00 53 1019.3
20230205153035 36 118 1.0 9.0 0.00 0.00 0.00 56 1019.6
20230205151530 35 288 2.0 9.0 0.00 0.00 0.00 57 1019.7
20230205150030 33 171 3.0 9.0 0.00 0.00 0.00 59 1020.1
20230205144533 32 150 2.0 5.0 0.00 0.00 0.00 61 1020.3
20230205143018 30 192 1.0 10.0 0.00 0.00 0.00 63 1020.6
20230205141520 29 287 1.0 8.0 0.00 0.00 0.00 65 1020.8
20230205140012 28 88 0.0 8.0 0.00 0.00 0.00 66 1021.0
20230205134503 27 157 0.0 3.0 0.00 0.00 0.00 67 1021.2
20230205133111 26 175 0.0 3.0 0.00 0.00 0.00 68 1021.2
20230205131554 25 186 0.0 1.0 0.00 0.00 0.00 69 1021.6
20230205130100 25 232 1.0 7.0 0.00 0.00 0.00 70 1021.8
20230205124546 24 144 0.0 8.0 0.00 0.00 0.00 71 1022.0
20230205123047 22 108 0.0 0.0 0.00 0.00 0.00 72 1022.0
20230205121537 21 202 0.0 4.0 0.00 0.00 0.00 72 1022.1
20230205120038 21 57 0.0 3.0 0.00 0.00 0.00 72 1022.3
20230205114529 20 63 0.0 1.0 0.00 0.00 0.00 72 1022.6
20230205113026 19 119 0.0 0.0 0.00 0.00 0.00 72 1022.6
20230205111519 19 119 0.0 0.0 0.00 0.00 0.00 72 1022.8
20230205110016 19 119 0.0 0.0 0.00 0.00 0.00 70 1023.0
20230205104511 19 119 0.0 0.0 0.00 0.00 0.00 70 1023.1
20230205103006 19 119 0.0 0.0 0.00 0.00 0.00 69 1023.2
20230205101502 19 119 0.0 0.0 0.00 0.00 0.00 68 1023.5
20230205100110 19 119 0.0 0.0 0.00 0.00 0.00 68 1023.4
20230205094553 19 129 0.0 0.0 0.00 0.00 0.00 69 1023.6
20230205093052 19 129 0.0 0.0 0.00 0.00 0.00 67 1023.9
20230205091545 18 150 0.0 0.0 0.00 0.00 0.00 66 1024.1
20230205090040 18 150 0.0 0.0 0.00 0.00 0.00 65 1024.3
20230205084537 18 127 0.0 4.0 0.00 0.00 0.00 65 1024.6
20230205083031 17 148 0.0 2.0 0.00 0.00 0.00 65 1024.9
20230205081538 17 155 0.0 2.0 0.00 0.00 0.00 64 1025.1
20230205080029 17 269 0.0 0.0 0.00 0.00 0.00 64 1025.3
20230205074518 16 336 0.0 0.0 0.00 0.00 0.00 62 1025.6
20230205073020 16 138 0.0 1.0 0.00 0.00 0.00 61 1025.8
20230205071509 16 81 0.0 0.0 0.00 0.00 0.00 59 1026.0
20230205070005 16 81 0.0 0.0 0.00 0.00 0.00 57 1026.2
20230205064605 16 81 0.0 0.0 0.00 0.00 0.00 56 1026.6
20230205063059 16 81 0.0 2.0 0.00 0.00 0.00 55 1027.0
20230205061555 16 63 0.0 0.0 0.00 0.00 0.00 54 1027.3
20230205060147 16 63 0.0 0.0 0.00 0.00 0.00 51 1027.3
20230205054549 15 63 0.0 2.0 0.00 0.00 0.00 51 1027.4
20230205053043 15 71 0.0 0.0 0.00 0.00 0.00 50 1027.5
20230205051539 15 148 0.0 4.0 0.00 0.00 0.00 48 1028.3
20230205050031 15 72 0.0 0.0 0.00 0.00 0.00 46 1028.5
20230205044527 14 74 0.0 0.0 0.00 0.00 0.00 44 1028.6
20230205043029 14 74 0.0 0.0 0.00 0.00 0.00 43 1028.8
20230205041520 14 74 0.0 0.0 0.00 0.00 0.00 42 1029.1
20230205040013 14 205 0.0 0.0 0.00 0.00 0.00 42 1029.6
20230205034518 14 206 0.0 0.0 0.00 0.00 0.00 40 1029.9
20230205033004 14 235 0.0 0.0 0.00 0.00 0.00 39 1030.0
20230205031635 13 114 0.0 1.0 0.00 0.00 0.00 40 1030.1
20230205030107 13 114 0.0 2.0 0.00 0.00 0.00 38 1030.5
20230205024600 13 114 0.0 2.0 0.00 0.00 0.00 37 1030.6
20230205023049 13 114 1.0 4.0 0.00 0.00 0.00 39 1030.8
20230205021546 13 123 0.0 0.0 0.00 0.00 0.00 37 1030.9
20230205020038 13 219 0.0 2.0 0.00 0.00 0.00 36 1031.0
20230205014534 13 165 2.0 5.0 0.00 0.00 0.00 35 1031.1
20230205013029 13 24 0.0 3.0 0.00 0.00 0.00 36 1031.1
20230205011525 13 286 0.0 2.0 0.00 0.00 0.00 37 1031.2
20230205010021 13 209 0.0 3.0 0.00 0.00 0.00 36 1030.9
20230205004523 13 184 0.0 1.0 0.00 0.00 0.00 37 1030.9
20230205003016 12 185 0.0 3.0 0.00 0.00 0.00 37 1031.1
20230205001509 12 219 0.0 0.0 0.00 0.00 0.00 40 1031.0
20230205000003 12 219 0.0 0.0 0.00 0.00 0.00 39 1031.1
20230204234600 12 219 0.0 0.0 0.00 0.00 0.00 38 1031.3
20230204233055 11 219 0.0 1.0 0.00 0.00 0.00 36 1031.4
20230204231550 11 219 0.0 3.0 0.00 0.00 0.00 33 1031.5
20230204230046 11 219 0.0 0.0 0.00 0.00 0.00 34 1031.5
20230204224547 11 219 0.0 0.0 0.00 0.00 0.00 34 1031.5
20230204223037 11 219 0.0 0.0 0.00 0.00 0.00 33 1031.3
20230204221535 11 219 2.0 4.0 0.00 0.00 0.00 31 1031.4
20230204220028 11 219 0.0 1.0 0.00 0.00 0.00 32 1031.3
20230204214532 11 227 0.0 6.0 0.00 0.00 0.00 30 1031.4
20230204213020 11 237 1.0 3.0 0.00 0.00 0.00 33 1031.3
20230204211515 11 186 1.0 5.0 0.00 0.00 0.00 30 1031.2
20230204210013 11 229 3.0 7.0 0.00 0.00 0.00 30 1031.2
20230204204515 11 203 1.0 7.0 0.00 0.00 0.00 30 1031.2
20230204203002 11 263 0.0 4.0 0.00 0.00 0.00 31 1031.0
20230204201615 11 231 4.0 7.0 0.00 0.00 0.00 29 1031.1